This demonstration page uses our WeatherBlox Daily Observations layout. Learn more.

Left ArrowRight Arrow

Hourly Observations for January 20, 2016

Temp ( °F °C ) Dew Point ( °F °C ) Humidity (%) Winds ( mph kmh ) Pressure ( in mb ) Visibility ( mi km ) Precip ( " mm )
12:53 am 00:53 Clear 29 -1.7 13 -10.6 51 51 Calm 30.37 1028 10 16 0.00 0.00
1:53 am 01:53 Clear 29 -1.7 14 -10 54 54 Calm 30.35 1028 10 16 0.00 0.00
2:53 am 02:53 Clear 29 -1.7 18 -7.8 63 63 Calm 30.34 1027 10 16 0.00 0.00
3:53 am 03:53 Clear 30 -1.1 16 -8.9 56 56 Calm 30.34 1028 10 16 0.00 0.00
4:53 am 04:53 Mostly Clear 30 -1.1 18 -7.8 61 61 Calm 30.33 1027 10 16 0.00 0.00
5:53 am 05:53 Mostly Clear 30 -1.1 20 -6.7 66 66 Calm 30.32 1027 10 16 0.00 0.00
6:53 am 06:53 Mostly Clear 31 -0.6 18 -7.8 59 59 Calm 30.32 1027 10 16 0.00 0.00
7:53 am 07:53 Mostly Cloudy 32 0 16 -8.9 52 52 ENE 5 7 30.31 1026 10 16 0.00 0.00
8:53 am 08:53 Cloudy 32 0 12 -11.1 43 43 E 7 11 30.31 1026 10 16 0.00 0.00
9:53 am 09:53 Cloudy 33 0.6 15 -9.4 47 47 VRB 5 7 30.31 1026 10 16 0.00 0.03
10:53 am 10:53 Cloudy 37 2.8 13 -10.6 37 37 SE 8 13 30.30 1026 10 16 0.00 0.03
11:53 am 11:53 Mostly Cloudy 40 4.4 15 -9.4 36 36 SSE 8 13 30.27 1025 10 16 0.00 0.00
12:53 pm 12:53 Mostly Cloudy 43 6.1 17 -8.3 35 35 VRB 6 9 30.23 1024 10 16 0.00 0.00
1:53 pm 13:53 Cloudy 39 3.9 30 -1.1 70 70 ENE 5 7 30.20 1023 10 16 0.06 1.52
2:53 pm 14:53 Cloudy with Light Rain 38 3.3 30 -1.1 73 73 ENE 5 7 30.19 1022 5 8 0.01 0.25
3:53 pm 15:53 Cloudy with Light Rain 37 2.8 33 0.6 86 86 ENE 3 6 30.19 1022 6 10 0.04 1.02
4:12 pm 16:12 Cloudy with Light Rain 37 3 34 1 87 87 Calm 30.24 1024 3 5 0.00 0.00
4:53 pm 16:53 Cloudy 37 2.8 34 1.1 89 89 NNE 5 7 30.19 1022 7 11 0.02 0.51
5:53 pm 17:53 Cloudy with Light Rain 37 2.8 33 0.6 86 86 NNE 3 6 30.20 1023 6 10 0.00 0.03
6:32 pm 18:32 Cloudy 37 2.8 33 0.6 86 86 NE 7 11 30.24 1024 10 16 0.00 0.03
6:53 pm 18:53 Cloudy 37 2.8 34 1.1 89 89 NNE 5 7 30.20 1023 10 16 0.00 0.03
7:53 pm 19:53 Cloudy 37 2.8 33 0.6 86 86 NE 7 11 30.20 1023 10 16 0.00 0.03
8:51 pm 20:51 Cloudy 37 3 34 1 87 87 NNE 5 7 30.24 1024 8 13 0.00 0.03
8:53 pm 20:53 Cloudy 37 2.8 34 1.1 89 89 NNE 5 7 30.21 1023 7 11 0.00 0.03
9:53 pm 21:53 Cloudy 37 2.8 34 1.1 89 89 Calm 30.21 1023 7 11 0.00 0.00
10:53 pm 22:53 Cloudy 37 2.8 34 1.1 89 89 NNE 3 6 30.21 1023 7 11 0.00 0.00
11:53 pm 23:53 Cloudy with Mist and Fog 37 2.8 33 0.6 86 86 NNE 3 6 30.21 1023 6 10 0.00 0.00

Powered by AerisWeather